Location: Street
(51.1247°N, 2.7429°W)
Time: 16:15:27
(UTC+00:00)

SR - Pass Details

Date: 30 November 2020
Orbit: 575 x 880 km, 66.7° (Epoch: 26 January)

Event Time Altitude Azimuth Distance (km) Brightness Sun altitude
Rises 23:53:29 0° 319° (NW) 3,061 - -60.7°
Reaches altitude 10° 23:56:25 10° 338° (NNW) 2,204 - -60.7°
Maximum altitude 23:59:58 19° 23° (NNE) 1,748 - -60.7°
Drops below altitude 10° 00:03:42 10° 67° (ENE) 2,344 - -60.7°
Sets 00:06:57 0° 85° (E) 3,331 - -60.7°
